Tracking 28790 objects as of 18-Apr-2024
HD Live streaming from Space Station
objects crossing your sky now

STARLINK-3143

Track STARLINK-3143 now!
10-day predictions
STARLINK-3143 is classified as:


NORAD ID: 49738
Int'l Code: 2021-115Q
Perigee: 544.1 km
Apogee: 545.9 km
Inclination: 53.2 °
Period: 95.4 minutes
Semi major axis: 6915 km
RCS: Unknown
Launch date: December 2, 2021
Source: United States (US)
Launch site: AIR FORCE EASTERN TEST RANGE (AFETR)
Your satellite tracking list
Your tracking list is empty




NASA's NSSDC Master Catalog

Two Line Element Set (TLE):
1 49738U 21115Q   24109.58334491  .00047197  00000-0  29141-2 0  9991
2 49738  53.2177   7.3500 0001340 100.4551 109.0009 15.09458528132458
Source of the keplerian elements: AFSPC